Temp
66 70 76 77 77 77 77 78 78 78 78 78 78 78 78 78 78 78 78 78 78 79 80 80 79 79 78 78 77 76 76 76 75 75 74 75 76 77 77 76 76 73 77
68 72 76 77 78 78 77 77 77 77 77 78 78 79 79 78 78 78 78 78 78 79 79 79 79 78 78 77 76 76 76 75 75 74 73 73 75 76 77 76 75 75 76
70 73 75 76 77 77 76 76 77 77 77 77 78 78 78 78 78 78 78 78 78 78 79 78 78 78 77 76 76 75 75 75 74 74 73 73 73 76 76 76 76 76 75
72 73 74 76 76 77 77 77 77 77 77 77 77 77 78 77 77 77 77 77 77 78 77 77 77 76 76 75 75 75 74 73 72 70 68 71 74 76 76 75 75 75 75
70 71 74 75 76 77 77 76 77 77 76 76 76 76 77 77 77 77 76 76 76 76 76 76 76 75 75 75 74 74 73 72 70 68 65 67 72 75 75 75 75 75 75
69 72 74 75 76 76 76 76 76 76 76 75 74 74 76 77 77 76 75 75 75 75 76 75 75 75 74 74 74 73 72 70 67 63 63 68 73 75 75 75 75 75 74
68 71 73 75 76 76 76 76 75 75 76 75 74 74 76 76 76 75 74 74 75 75 75 75 75 75 74 73 73 72 71 68 63 62 62 64 70 76 75 75 74 74 74
69 70 73 73 74 75 75 74 74 75 75 75 76 76 76 76 75 75 74 74 75 75 75 75 75 74 73 73 72 71 69 68 64 62 62 64 73 75 75 74 74 74 74
69 69 69 71 72 73 73 74 73 74 75 75 75 75 74 74 74 75 74 74 74 74 74 74 74 74 73 72 71 70 68 66 60 62 66 65 73 75 75 74 74 74 74
66 66 66 67 68 69 71 71 71 71 71 71 70 70 69 70 71 72 71 72 73 73 73 73 73 73 72 71 70 68 66 65 60 62 63 71 74 75 75 74 74 73 73
65 65 65 65 66 67 68 69 69 69 69 68 67 66 66 64 66 67 68 69 71 72 72 72 71 71 69 68 68 66 64 61 60 61 63 73 74 74 74 73 73 72 71
62 62 64 64 65 67 70 68 66 66 64 64 64 63 63 63 64 65 65 67 69 70 70 71 70 68 65 62 62 63 60 60 60 61 71 72 74 74 73 72 71 70 70
63 65 63 64 64 65 65 67 63 63 62 62 62 62 62 62 60 60 60 61 61 62 64 63 62 61 61 61 59 59 59 59 58 60 67 71 73 73 72 71 70 69 69
62 62 64 65 65 64 65 63 62 62 61 60 61 61 59 58 58 58 58 59 59 59 58 60 58 58 59 59 59 58 57 57 57 58 63 68 71 72 71 71 70 69 69
62 62 63 65 65 64 62 61 61 60 60 60 60 61 60 58 57 58 58 58 58 59 58 58 58 57 57 58 58 57 55 56 56 56 57 64 68 70 70 70 70 69 69
63 62 64 66 65 63 62 61 61 60 61 60 60 60 61 60 58 58 58 58 58 58 58 57 57 57 57 57 56 55 55 55 55 55 55 57 66 67 69 69 69 69 69
64 64 63 63 63 63 62 62 61 61 62 60 60 61 61 61 59 58 57 57 57 58 58 57 56 55 55 56 55 55 54 54 54 54 53 53 55 63 66 67 67 67 67
64 64 65 68 64 63 63 62 63 62 61 60 60 60 62 62 61 58 58 57 57 56 56 55 55 54 53 52 51 52 52 53 52 52 52 51 52 53 60 64 65 65 65
65 64 65 63 64 64 64 63 63 62 61 61 60 60 61 62 61 60 58 57 57 56 55 56 53 53 51 50 52 50 50 51 51 54 51 51 51 50 50 60 61 61 62
67 66 66 65 66 65 65 67 66 64 63 61 60 61 62 62 62 60 58 57 57 55 54 54 53 51 51 51 56 51 49 50 50 49 49 52 49 49 48 47 46 51 59
68 68 66 67 64 66 65 64 64 64 63 63 60 62 62 62 61 60 58 57 56 55 54 54 52 52 50 49 49 48 49 49 48 48 48 48 48 47 47 45 44 44 45
66 68 68 66 63 67 67 65 65 64 62 63 62 61 62 62 61 60 58 57 56 55 54 54 53 50 50 49 48 47 45 48 49 49 47 49 46 47 47 46 45 44 42
65 66 68 68 66 66 65 64 61 61 60 59 57 58 60 62 61 60 58 57 56 55 54 53 53 52 49 49 50 49 43 43 45 47 47 47 46 44 44 45 45 44 43
67 68 69 69 69 69 67 66 64 63 59 57 57 58 59 61 60 60 58 57 56 55 54 53 54 52 51 49 48 51 48 47 45 43 46 45 45 46 43 44 43 44 43
66 66 68 68 68 69 67 67 65 62 58 57 57 58 57 58 59 59 58 57 56 55 54 53 52 52 51 50 49 47 46 45 45 44 42 42 44 43 43 43 42 41 42
61 62 62 66 67 68 66 67 66 65 57 56 56 55 55 56 57 58 58 57 56 55 54 53 52 52 50 49 48 48 48 47 45 44 41 40 40 41 41 41 40 40 40
MSLP
1015.05 1014.77 1015.04 1015.16 1015.39 1015.65 1015.78 1015.87 1015.79 1015.86 1015.84 1016.05 1016.18 1016.38 1016.49 1016.81 1016.97 1017.05 1017.22 1017.26 1017.31 1017.37 1017.39 1017.56 1017.84 1018.02 1018.30 1018.39 1018.56 1018.82 1018.99 1018.95 1018.98 1018.96 1019.11 1019.04 1019.04 1019.18 1019.28 1019.22 1019.31 1019.46 1019.26
1014.54 1014.80 1015.10 1015.25 1015.55 1015.79 1015.83 1016.04 1016.12 1016.09 1016.12 1016.43 1016.55 1016.77 1016.91 1017.15 1017.21 1017.54 1017.60 1017.67 1017.80 1017.79 1017.97 1018.16 1018.34 1018.56 1018.87 1019.13 1019.41 1019.53 1019.63 1019.61 1019.64 1019.69 1019.81 1019.96 1019.94 1019.80 1019.71 1019.93 1020.04 1020.06 1019.88
1014.71 1014.99 1015.12 1015.48 1015.73 1015.94 1015.93 1016.39 1016.36 1016.60 1016.74 1016.74 1016.96 1017.19 1017.44 1017.61 1017.67 1018.06 1018.07 1018.18 1018.34 1018.42 1018.59 1018.77 1018.92 1019.18 1019.43 1019.73 1019.86 1019.97 1020.03 1020.10 1020.09 1020.16 1020.35 1020.46 1020.39 1020.41 1020.61 1020.63 1020.49 1020.53 1020.45
1014.69 1015.05 1015.27 1015.68 1015.97 1016.19 1016.44 1016.62 1016.65 1016.82 1017.02 1017.23 1017.50 1017.61 1018.02 1018.18 1018.19 1018.47 1018.51 1018.74 1018.79 1018.99 1019.34 1019.53 1019.63 1019.88 1020.15 1020.31 1020.59 1020.73 1020.74 1020.85 1020.99 1021.00 1021.06 1021.13 1020.96 1021.13 1021.18 1021.13 1021.11 1021.20 1021.06
1015.03 1015.25 1015.54 1015.82 1016.18 1016.47 1016.70 1016.82 1016.93 1017.09 1017.23 1017.68 1018.00 1018.18 1018.70 1018.80 1018.82 1019.05 1019.17 1019.31 1019.42 1019.67 1019.95 1020.17 1020.20 1020.44 1020.63 1020.88 1021.16 1021.41 1021.47 1021.56 1021.65 1021.74 1021.74 1021.79 1021.62 1021.68 1021.67 1021.71 1021.72 1021.62 1021.73
1015.30 1015.48 1015.78 1016.10 1016.38 1016.66 1017.01 1017.26 1017.36 1017.49 1017.63 1017.99 1018.53 1019.19 1019.27 1019.18 1019.34 1019.55 1019.78 1019.96 1020.06 1020.30 1020.47 1020.68 1020.61 1020.86 1021.18 1021.32 1021.67 1021.87 1021.98 1022.08 1022.21 1022.27 1022.15 1022.12 1022.00 1022.15 1022.18 1022.26 1022.27 1022.32 1022.22
1015.54 1015.76 1016.16 1016.39 1016.71 1016.99 1017.13 1017.53 1017.80 1017.91 1018.17 1018.08 1018.80 1019.50 1019.73 1019.66 1019.82 1020.11 1020.31 1020.47 1020.58 1020.83 1020.99 1020.92 1020.98 1021.49 1021.72 1021.99 1022.16 1022.44 1022.62 1022.72 1022.89 1022.92 1022.78 1022.77 1022.74 1022.60 1022.73 1022.72 1022.63 1022.62 1022.39
1015.76 1016.10 1016.54 1016.71 1017.08 1017.35 1017.47 1017.84 1018.10 1018.49 1018.75 1018.58 1019.26 1019.71 1020.08 1020.18 1020.31 1020.61 1020.80 1020.87 1021.00 1021.31 1021.42 1021.51 1021.63 1021.99 1022.16 1022.49 1022.64 1022.90 1023.08 1023.23 1023.37 1023.42 1023.34 1023.24 1023.12 1023.05 1023.16 1023.11 1022.97 1022.91 1022.76
1016.17 1016.61 1017.03 1017.23 1017.57 1017.77 1017.87 1018.01 1018.49 1018.96 1019.13 1019.25 1019.72 1020.12 1020.43 1020.64 1020.83 1021.00 1021.11 1021.28 1021.52 1021.79 1021.93 1022.04 1022.18 1022.39 1022.65 1022.95 1023.16 1023.42 1023.62 1023.78 1023.80 1023.77 1023.64 1023.61 1023.44 1023.38 1023.51 1023.41 1023.33 1023.20 1023.25
1016.78 1017.16 1017.64 1017.76 1018.06 1018.31 1018.44 1018.75 1019.16 1019.46 1019.64 1019.91 1020.27 1020.63 1020.96 1021.18 1021.27 1021.42 1021.60 1021.83 1021.95 1022.21 1022.34 1022.56 1022.71 1022.87 1023.12 1023.39 1023.61 1023.91 1024.14 1024.11 1024.19 1024.08 1024.00 1023.91 1023.84 1023.78 1023.87 1023.72 1023.64 1023.82 1023.82
1017.40 1017.84 1018.07 1018.24 1018.60 1018.82 1019.08 1019.32 1019.64 1019.94 1020.22 1020.65 1020.94 1021.18 1021.39 1021.70 1021.79 1021.88 1022.03 1022.26 1022.36 1022.44 1022.61 1023.01 1023.12 1023.29 1023.58 1023.89 1024.12 1024.35 1024.46 1024.63 1024.65 1024.50 1024.37 1024.38 1024.17 1024.18 1024.22 1024.18 1024.28 1024.44 1024.46
1017.97 1018.37 1018.48 1018.71 1018.96 1019.14 1019.42 1019.69 1020.15 1020.51 1020.91 1021.17 1021.50 1021.69 1021.90 1022.13 1022.23 1022.35 1022.56 1022.61 1022.71 1022.82 1023.01 1023.25 1023.51 1023.79 1024.02 1024.42 1024.72 1024.89 1024.98 1025.06 1024.99 1024.94 1024.66 1024.65 1024.51 1024.59 1024.67 1024.83 1024.97 1025.04 1025.13
1018.11 1018.49 1018.85 1018.95 1019.28 1019.48 1019.80 1019.98 1020.58 1020.97 1021.44 1021.66 1021.89 1022.06 1022.37 1022.47 1022.71 1022.99 1023.12 1023.21 1023.36 1023.37 1023.53 1023.88 1024.14 1024.35 1024.50 1024.81 1025.22 1025.30 1025.36 1025.39 1025.42 1025.27 1025.14 1025.01 1024.86 1025.15 1025.24 1025.36 1025.58 1025.62 1025.63
1018.35 1018.80 1019.01 1019.12 1019.39 1019.73 1019.88 1020.40 1020.99 1021.33 1021.70 1022.01 1022.22 1022.54 1022.76 1023.02 1023.27 1023.49 1023.63 1023.71 1023.95 1023.99 1024.06 1024.27 1024.56 1024.75 1024.98 1025.24 1025.42 1025.66 1025.84 1025.93 1026.09 1025.94 1025.74 1025.55 1025.58 1025.65 1025.75 1025.89 1025.94 1026.03 1025.99
1018.50 1018.91 1019.15 1019.29 1019.44 1019.86 1020.33 1020.93 1021.33 1021.63 1021.96 1022.25 1022.54 1022.83 1022.94 1023.33 1023.69 1023.77 1023.93 1024.04 1024.23 1024.21 1024.39 1024.71 1024.85 1025.17 1025.44 1025.68 1025.90 1026.03 1026.38 1026.49 1026.58 1026.61 1026.41 1026.30 1026.25 1026.28 1026.32 1026.19 1026.27 1026.29 1026.30
1018.47 1018.83 1019.16 1019.27 1019.57 1020.06 1020.58 1021.16 1021.59 1021.97 1022.11 1022.49 1022.69 1022.80 1022.99 1023.39 1023.77 1023.93 1024.13 1024.31 1024.42 1024.54 1024.77 1025.01 1025.30 1025.57 1025.86 1026.04 1026.38 1026.59 1026.85 1026.97 1027.09 1027.18 1027.08 1027.03 1026.96 1026.94 1026.81 1026.71 1026.73 1026.68 1026.64
1018.29 1018.72 1019.12 1019.43 1019.82 1020.28 1020.63 1021.18 1021.65 1022.00 1022.19 1022.59 1022.82 1022.97 1023.15 1023.43 1023.73 1024.01 1024.32 1024.56 1024.68 1024.78 1025.00 1025.38 1025.74 1025.96 1026.29 1026.48 1026.74 1027.07 1027.23 1027.46 1027.66 1027.72 1027.77 1027.81 1027.71 1027.53 1027.30 1027.26 1027.26 1027.22 1027.28
1018.23 1018.88 1019.16 1019.46 1019.92 1020.38 1020.70 1021.26 1021.63 1021.96 1022.21 1022.54 1022.80 1022.99 1023.14 1023.42 1023.67 1024.12 1024.40 1024.67 1024.83 1025.07 1025.31 1025.64 1026.03 1026.54 1026.82 1027.07 1027.41 1027.63 1027.83 1027.93 1028.18 1028.26 1028.26 1028.28 1028.35 1028.26 1028.09 1028.02 1027.90 1027.90 1027.98
1018.03 1018.72 1019.22 1019.47 1019.93 1020.38 1020.66 1021.22 1021.55 1021.88 1022.26 1022.54 1022.79 1023.06 1023.25 1023.48 1023.76 1024.06 1024.41 1024.71 1024.90 1025.21 1025.56 1025.72 1026.34 1026.62 1027.25 1027.63 1027.88 1028.19 1028.37 1028.49 1028.51 1028.48 1028.63 1028.73 1028.74 1028.80 1028.86 1028.70 1028.66 1028.70 1028.61
1018.04 1018.59 1018.98 1019.34 1019.81 1020.20 1020.57 1021.00 1021.40 1021.90 1022.17 1022.54 1022.69 1023.03 1023.29 1023.51 1023.75 1024.13 1024.47 1024.77 1025.05 1025.45 1025.85 1026.06 1026.48 1027.05 1027.44 1027.78 1028.27 1028.74 1028.91 1028.83 1028.80 1028.82 1028.90 1028.88 1029.02 1029.20 1029.36 1029.42 1029.52 1029.42 1029.18
1017.78 1018.32 1018.78 1019.05 1019.68 1020.09 1020.55 1021.01 1021.52 1021.86 1022.17 1022.51 1022.75 1022.80 1023.16 1023.46 1023.78 1024.15 1024.49 1024.87 1025.17 1025.50 1025.88 1026.20 1026.81 1027.31 1028.02 1028.15 1028.55 1029.25 1029.27 1029.11 1029.05 1029.12 1029.12 1029.15 1029.30 1029.52 1029.64 1029.85 1030.03 1030.07 1029.95
1017.46 1017.79 1018.34 1018.89 1019.47 1019.84 1020.19 1020.65 1020.98 1021.58 1022.14 1022.31 1022.55 1022.84 1022.98 1023.32 1023.71 1024.17 1024.57 1024.87 1025.24 1025.69 1026.05 1026.40 1026.71 1027.51 1027.85 1028.01 1028.45 1029.08 1029.54 1029.53 1029.24 1029.22 1029.25 1029.27 1029.57 1029.72 1029.92 1030.17 1030.30 1030.32 1030.24
1017.17 1017.32 1017.83 1018.49 1019.13 1019.59 1020.00 1020.51 1021.20 1021.77 1022.31 1022.68 1022.91 1023.07 1023.13 1023.23 1023.52 1023.89 1024.36 1024.71 1025.09 1025.48 1025.90 1026.18 1026.47 1026.81 1027.53 1027.87 1027.81 1028.11 1029.29 1029.18 1029.27 1029.24 1029.32 1029.48 1029.77 1030.01 1030.23 1030.32 1030.35 1030.31 1030.26
1016.63 1016.99 1017.42 1018.04 1018.66 1019.28 1019.81 1020.24 1020.66 1021.32 1021.99 1022.38 1022.55 1022.86 1023.02 1023.26 1023.49 1023.70 1024.11 1024.55 1024.83 1025.24 1025.68 1025.88 1026.13 1026.54 1026.99 1027.56 1027.95 1027.91 1027.95 1028.31 1029.00 1029.55 1029.48 1029.61 1029.81 1030.06 1030.18 1030.20 1030.33 1030.27 1030.18
1016.45 1016.77 1017.16 1017.62 1018.32 1018.90 1019.44 1019.86 1020.45 1020.99 1021.62 1022.05 1022.47 1022.77 1023.08 1023.23 1023.51 1023.64 1023.88 1024.32 1024.72 1025.08 1025.36 1025.69 1026.07 1026.35 1026.68 1027.21 1027.57 1027.92 1028.24 1028.42 1028.59 1029.07 1029.59 1029.75 1029.82 1029.89 1030.03 1030.24 1030.43 1030.45 1030.37
1016.57 1016.93 1017.13 1017.51 1018.02 1018.59 1019.14 1019.59 1020.09 1020.67 1021.49 1022.12 1022.47 1022.80 1022.96 1023.21 1023.43 1023.55 1023.69 1023.98 1024.38 1024.78 1025.21 1025.45 1025.73 1026.11 1026.42 1026.69 1026.98 1027.29 1027.59 1028.04 1028.52 1028.86 1029.46 1029.82 1030.05 1030.28 1030.47 1030.57 1030.62 1030.60 1030.51
Wind_Speed
5 6 12 13 12 11 13 14 15 16 16 18 19 20 19 18 18 18 19 19 19 21 23 24 24 24 24 24 24 24 23 24 24 23 21 21 22 23 22 21 18 13 22
7 7 13 14 13 12 13 15 13 16 17 16 18 19 18 18 19 18 19 20 21 22 22 22 23 23 23 22 22 22 22 22 19 18 16 17 20 21 22 19 18 17 21
8 8 11 13 14 14 15 15 14 16 15 17 17 18 18 17 18 18 20 20 21 21 21 21 22 23 23 22 21 21 21 21 19 15 14 10 11 20 20 19 20 21 21
10 8 9 14 15 15 15 15 15 16 16 17 18 18 17 18 18 18 20 21 22 22 22 21 21 21 21 21 21 20 21 20 18 16 8 7 11 19 19 20 20 20 21
8 7 11 15 15 15 15 15 17 19 20 19 17 18 17 18 19 19 20 21 20 20 20 19 19 20 21 20 20 20 20 19 17 11 7 7 7 16 19 19 18 19 20
8 9 14 17 17 16 18 18 15 17 21 22 22 14 16 18 19 20 20 18 18 18 19 17 19 20 19 20 20 20 20 18 13 7 7 9 9 18 18 19 19 19 19
9 8 11 17 16 16 19 17 16 15 19 24 24 17 15 18 18 19 19 17 17 17 18 19 21 21 20 19 20 20 18 16 7 7 6 6 8 18 18 18 18 18 19
11 9 11 15 16 15 20 20 20 18 19 21 20 17 17 17 18 18 17 17 17 18 18 21 20 20 20 19 20 19 17 13 8 7 6 5 14 18 18 18 18 19 19
10 9 7 9 12 15 18 19 19 18 17 19 19 16 15 15 16 17 16 16 17 18 17 18 18 19 19 19 19 17 15 13 7 4 5 4 15 18 18 18 18 18 19
8 8 7 7 7 8 9 17 17 17 18 19 17 15 13 11 13 14 13 12 14 15 16 16 16 18 19 18 18 16 14 12 6 5 4 7 15 17 17 17 18 18 18
8 7 6 8 8 8 9 11 14 16 16 15 13 13 9 4 6 7 9 10 11 13 15 16 16 18 16 14 15 14 11 4 5 3 3 14 15 17 17 17 18 18 19
9 6 6 7 8 8 8 8 8 8 6 6 5 6 4 5 5 6 6 9 10 11 11 13 16 16 10 5 4 8 4 4 4 3 6 12 15 17 16 18 17 17 17
10 7 6 7 6 6 5 6 4 4 4 4 6 5 4 4 4 4 3 4 4 6 4 6 6 4 6 5 4 4 5 5 3 3 5 11 15 15 17 16 16 16 16
9 7 7 7 6 6 5 5 5 5 3 3 4 5 4 3 4 4 3 4 3 2 5 5 4 5 6 6 6 6 5 4 3 3 7 13 14 15 15 15 16 16 16
10 7 7 7 7 7 7 4 4 4 3 4 4 4 4 4 4 3 3 3 2 3 4 4 5 5 6 5 5 6 5 6 6 3 3 12 12 13 14 15 15 16 16
11 9 7 7 8 7 6 6 4 4 4 4 4 4 5 4 4 3 3 3 3 3 3 4 4 5 4 5 5 5 5 5 5 6 4 5 12 12 14 15 15 15 15
11 10 8 8 8 7 7 5 4 4 4 4 4 5 5 5 5 5 4 4 3 3 6 5 5 5 5 4 6 5 5 5 5 5 5 4 6 11 13 14 14 15 15
12 10 10 9 8 7 6 5 4 4 4 4 4 4 5 6 6 5 4 4 4 4 4 4 4 4 4 4 4 3 4 4 5 5 4 4 4 4 9 12 13 13 13
13 11 10 8 9 8 6 5 5 6 4 4 4 4 5 6 6 5 4 4 4 4 4 3 3 3 3 3 4 4 3 3 3 3 5 5 5 5 4 11 13 12 13
14 12 11 9 10 8 5 5 4 4 4 3 4 4 6 5 6 5 4 5 4 4 3 2 3 4 3 4 5 4 2 2 2 3 4 3 4 5 5 6 5 5 12
15 15 12 11 8 7 4 5 4 5 3 3 3 6 6 5 6 5 4 5 4 4 4 4 3 4 3 3 5 3 3 2 2 2 2 3 4 4 5 5 3 3 4
15 15 13 11 8 6 6 3 3 4 2 2 3 5 6 7 6 5 5 5 5 4 5 5 4 3 2 3 4 2 1 2 1 2 1 2 4 3 4 4 4 4 4
13 14 14 14 11 8 6 5 3 4 3 2 1 2 4 6 7 7 6 5 6 4 5 5 5 6 4 4 3 5 2 4 1 0 2 2 4 2 3 4 4 4 3
15 13 14 13 13 12 10 9 7 5 4 3 4 3 4 5 6 7 7 6 6 4 5 5 4 3 4 5 0 1 1 4 4 1 1 1 3 4 4 3 3 3 3
10 10 12 13 12 12 10 10 7 5 4 3 3 6 5 4 6 6 8 6 6 4 5 6 5 5 3 4 3 2 1 1 2 3 3 2 1 2 3 3 3 2 3
7 7 8 13 13 12 11 11 12 10 6 4 4 4 4 3 4 6 6 7 6 5 6 5 5 6 5 4 4 4 4 4 4 3 2 1 2 1 1 2 2 1 1
Wind_Direction
190 159 160 148 145 147 142 135 129 127 116 114 112 108 105 105 103 101 101 101 98 99 96 93 91 88 86 84 81 79 77 75 71 68 66 64 66 67 66 65 60 62 65
140 149 155 145 144 142 140 131 131 118 113 110 110 108 107 107 106 106 104 101 99 96 92 92 93 92 88 87 87 85 79 75 74 69 69 71 72 71 70 70 68 70 69
135 146 143 145 142 143 132 132 128 119 113 115 107 106 105 106 106 108 105 104 100 97 91 91 93 92 90 87 82 79 76 73 62 63 66 59 75 76 77 77 76 70 68
131 133 131 140 142 135 134 129 124 120 115 109 106 102 102 103 103 102 101 104 102 95 90 91 94 96 93 88 85 83 79 67 60 55 48 63 70 79 81 78 74 73 71
116 127 134 138 138 137 135 128 123 114 106 97 95 100 105 105 103 100 97 96 93 94 92 92 98 97 94 92 89 86 81 77 64 55 59 56 79 82 80 76 75 75 77
112 122 136 138 134 136 134 121 110 113 112 103 88 92 98 98 99 96 96 94 95 95 90 96 107 98 97 94 92 88 84 76 65 50 47 63 78 86 83 79 77 76 73
113 122 133 139 130 135 121 117 110 115 117 117 118 130 113 106 103 100 97 93 94 94 90 93 108 105 98 97 98 93 85 76 65 54 53 57 77 84 81 79 76 74 71
119 122 135 134 126 131 123 128 126 128 116 111 116 120 115 110 107 104 102 96 94 95 91 93 107 106 100 100 98 94 85 76 65 60 52 59 84 83 80 78 75 72 68
108 103 107 122 122 121 120 113 115 115 116 112 113 114 110 111 114 110 102 100 100 98 94 91 100 107 105 104 102 94 86 79 68 62 62 51 86 85 82 80 76 70 67
102 97 97 93 96 102 107 103 100 99 95 95 95 92 84 86 99 104 97 101 99 93 87 86 99 116 109 106 102 95 85 75 65 61 53 87 88 87 82 79 71 67 66
96 94 98 101 103 104 111 108 100 98 97 96 92 90 84 78 79 83 99 93 87 87 89 88 98 118 108 101 97 89 79 65 63 54 56 93 89 85 79 76 73 69 64
129 114 109 109 115 115 116 109 99 99 92 92 96 98 92 97 87 85 90 91 83 82 77 77 96 109 93 83 76 80 74 73 61 43 95 93 92 83 80 73 72 69 67
140 129 127 121 115 110 118 109 101 98 104 96 103 96 96 91 81 84 78 71 68 57 58 67 73 82 99 98 82 85 78 63 45 36 72 89 85 85 81 80 76 71 67
143 140 139 134 121 115 103 97 114 116 110 104 110 116 111 95 96 99 95 88 82 74 81 80 82 95 97 94 102 87 76 72 48 40 47 65 85 86 86 83 78 72 66
147 148 149 145 128 115 107 110 112 122 129 135 127 135 124 115 117 109 99 92 95 103 98 89 91 96 103 98 84 98 87 79 64 47 46 57 69 85 86 83 78 73 67
152 150 153 126 115 127 125 134 139 144 144 145 147 154 138 132 132 119 107 112 96 101 101 99 105 100 95 106 95 91 96 82 75 65 54 44 67 81 82 79 74 68 64
159 156 157 139 137 141 144 147 151 168 148 154 162 165 164 161 153 141 132 119 121 105 105 97 85 82 92 86 95 95 95 89 85 80 71 63 49 56 77 78 76 67 60
155 168 162 159 160 158 149 159 160 169 151 167 168 168 157 151 146 139 133 133 132 113 109 105 110 88 93 100 106 89 96 94 99 94 84 73 63 50 67 73 71 65 55
166 165 168 149 169 171 154 159 161 166 160 179 151 159 163 156 155 145 144 139 132 120 115 128 80 104 109 97 108 95 94 119 132 113 96 98 90 79 60 76 67 60 55
172 172 174 158 172 171 156 145 138 159 150 164 162 173 168 166 158 144 135 138 132 119 116 104 116 62 111 121 99 86 74 79 106 110 129 119 109 96 83 72 54 38 55
177 175 175 168 178 162 162 148 152 177 158 166 182 171 171 166 157 155 146 139 139 140 159 134 94 108 71 144 103 50 32 38 76 125 129 124 122 106 100 91 77 56 27
174 172 169 177 178 177 166 155 141 141 133 170 173 181 172 164 161 158 160 163 160 138 146 155 140 126 114 197 132 118 134 325 316 183 148 147 137 122 112 101 93 77 51
183 177 175 180 183 184 171 127 86 78 86 100 144 193 192 175 170 166 171 171 163 162 173 178 166 156 155 219 220 142 123 218 173 205 215 177 149 126 125 123 105 91 69
187 181 178 180 184 187 171 179 175 170 158 188 179 179 194 184 180 172 168 180 170 171 175 184 173 166 136 182 256 225 64 143 172 242 320 162 166 166 162 159 131 107 71
181 183 182 176 184 187 186 185 185 176 166 161 160 177 185 190 198 180 170 174 177 180 191 184 172 184 177 159 172 143 101 56 76 129 202 215 272 189 174 160 139 83 38
175 180 178 183 189 189 187 193 193 195 164 164 179 185 190 189 198 195 190 174 187 180 182 193 195 195 195 187 178 183 168 170 193 156 129 221 177 241 90 118 131 110 53